Skip Page Navigation
NASA JPL Caltech
NASA Logo - Jet Propulsion Laboratory + View the NASA Portal
+ Near-Earth Object (NEO) Program
Search JPL
JPL Home Earth Solar System Stars & Galaxies Technology
JPL Solar System Dynamics
BODIES ORBITS EPHEMERIDES TOOLS PHYSICAL DATA DISCOVERY FAQ SITE MAP
JPL Small-Body Database Browser
Search: [ help ]  
6187 (1988 RD5)
Classification: Main-belt Asteroid          SPK-ID: 2006187
Ephemeris | Orbit Diagram | Orbital Elements | Physical Parameters | Discovery Circumstances | Close-Approach Data ]

[ show orbit diagram ]
Orbital Elements at Epoch 2457400.5 (2016-Jan-13.0) TDB
Reference: JPL 12 (heliocentric ecliptic J2000)
 Element Value Uncertainty (1-sigma)   Units 
e .179421945203817 5.6999e-08  
a 3.134655704007625 2.6639e-08 au
q 2.572229680050337 1.7724e-07 au
i 1.934516488722697 5.438e-06 deg
node 53.12323146238497 0.00015516 deg
peri 327.4391483555891 0.0001559 deg
M 302.0576132670859 1.7237e-05 deg
tp 2457726.769950400645
(2016-Dec-04.26995040)
9.9627e-05 JED
period 2027.137450958867
5.55
2.5841e-05
7.075e-08
d
yr
n .1775903256238074 2.2638e-09 deg/d
Q 3.697081727964914 3.1419e-08 au
  Orbit Determination Parameters
   # obs. used (total)      1327  
   data-arc span      22264 days (60.96 yr)  
   first obs. used      1954-06-30  
   last obs. used      2015-06-14  
   planetary ephem.      DE431  
   SB-pert. ephem.      SB431-BIG16  
   condition code      0  
   fit RMS      .49528  
   data source      ORB  
   producer      Otto Matic  
   solution date      2015-Jul-06 11:53:29  

Additional Information
 Earth MOID = 1.57357 au 
 Jupiter MOID = 1.7583 au 
 T_jup = 3.186 
[ show covariance matrix ]

Ephemeris | Orbit Diagram | Orbital Elements | Physical Parameters | Discovery Circumstances | Close-Approach Data ]

Physical Parameter Table
Parameter Symbol Value Units Sigma Reference Notes
absolute magnitude H 12.7 mag n/a MPO263403  
diameter diameter 16.94 km 0.7 IRAS-A-FPA-3-RDR-IMPS-V6.0 IRAS observations used: 11
geometric albedo albedo 0.0616   0.006 IRAS-A-FPA-3-RDR-IMPS-V6.0 IRAS observations used: 11

6187 (1988 RD5)          Discovered 1988-Sep-02 by Debehogne, H. at La Silla
Reference: DISCOVERY.DBLast Updated: 2003-08-29

[ show close-approach data ]
Alternate Designations
 1988 RD5 = 1977 RH20 = 1977 RU2 = 1989 YD5 
Ephemeris | Orbit Diagram | Orbital Elements | Physical Parameters | Discovery Circumstances | Close-Approach Data ]
ABOUT SSD CREDITS/AWARDS PRIVACY/COPYRIGHT GLOSSARY LINKS
FirstGov 2016-Feb-12 20:30 UT
(server date/time)  
NASA Home Page
Site Manager:   Ryan S. Park
Webmaster  Alan B. Chamberlin